Погода в Арчибе

Россия / Республика Дагестан     42°03′54″N   46°52′10″E
темп.,
°C
ветер,
м/с
пор.,
м/с
влажн.,
%
обл.,
%
осадки,
мм/ч
давл.,
гПа
погр.,
м
27 января, чт
чт2700:00−15ююз448013 0.0 101715
03:00−15ю449211 0.0 101616
06:00−15ю43835 0.0 101513
09:00−11ююз327728 0.0 101141
12:00−9юз236892 0.0 1008818
15:00−10з117463 0.3 1008547
18:00−17ю11100100 0.1 10169
21:00−17юз1110099 0.1 10179
28 января, пт
пт2800:00−18ююз3310099 0.1 102011
03:00−19ююз3310099 0.1 102113
06:00−18ю5510099 0.1 102231
09:00−16ююз669758 0.1 1021258
12:00−14ююз67715 0.0 1020616
15:00−15юз568112 0.0 1022465
18:00−20ююз55100100 0.0 102844
21:00−18ююз559999 0.3 102769
29 января, сб
сб2900:00−19ююз5410084 0.4 102936
03:00−20ююз6510099 0.4 103034
06:00−20ююз659613 0.0 102932
09:00−16ююз55885 0.0 1026132
12:00−13ююз55775 0.0 1022332
15:00−14ююз448128 0.0 1022254
18:00−18ююз448694 0.0 102826
21:00−19ююз54595 0.0 103020
30 января, вс
вс3000:00−19ююз55720 0.0 103027
03:00−19ююз55775 0.0 102825
06:00−18ююз54765 0.0 102723
09:00−13ююз557714 0.0 102295
12:00−11юз557521 0.0 1018436
15:00−12юз558044 0.0 1018503
18:00−17ююз549223 0.0 102423
21:00−17ююз547735 0.0 102426
31 января, пн
пн3100:00−17ююз558183 0.0 102240
03:00−18юз559399 0.0 102239
06:00−18ююз5410076 0.3 102027
09:00−16ююз5510094 0.4 1020234
12:00−13ююз669290 0.1 1016370
15:00−13ююз669177 0.1 1016336
18:00−17ююз6610099 0.1 102248
21:00−18ююз6610099 0.1 102442